When you browse on this site, cookies collect data to enhance your experience and personalize the content and advertising you see.
Visit our Privacy Policy to learn more. By continuing to use the site, you agree to this use of cookies and data.
  • In United Kingdom
  • List of Countries
  • For 7 days
  • Water Temperature
  • Satellite Maps
  • Weather Map
  • Weather Widgets
  • user-avatar
    Login

    Hourly Weather Kvasnikovka

    Today, 23 January, Wednesday

    Time Temperature Precipitation Wind Pressure Humidity
    00:00 -17°C° 0 mm 3 mps 766 mmHg 89%
    01:00 -18°C° 0 mm 3 mps 766 mmHg 90%
    02:00 -18°C° 0 mm 3 mps 766 mmHg 92%
    03:00 -19°C° 0 mm 3 mps 766 mmHg 93%
    04:00 -19°C° 0 mm 2 mps 767 mmHg 93%
    05:00 -20°C° 0 mm 2 mps 767 mmHg 94%
    06:00 -20°C° 0 mm 2 mps 767 mmHg 94%
    07:00 -20°C° 0 mm 2 mps 768 mmHg 94%
    08:00 -19°C° 0 mm 1 mps 768 mmHg 94%
    09:00 -19°C° 0 mm 1 mps 769 mmHg 94%
    10:00 -18°C° 0 mm 1 mps 769 mmHg 92%
    11:00 -17°C° 0 mm 1 mps 769 mmHg 89%
    12:00 -15°C° 0 mm 0 mps 770 mmHg 86%
    13:00 -16°C° 0 mm 0 mps 770 mmHg 86%
    14:00 -16°C° 0 mm 0 mps 770 mmHg 87%
    15:00 -16°C° 0 mm 0 mps 770 mmHg 88%
    16:00 -17°C° 0 mm 0 mps 770 mmHg 89%
    17:00 -17°C° 0 mm 1 mps 770 mmHg 90%
    18:00 -18°C° 0 mm 1 mps 770 mmHg 92%
    19:00 -18°C° 0 mm 1 mps 770 mmHg 92%
    20:00 -18°C° 0 mm 1 mps 771 mmHg 93%
    21:00 -20°C° 0 mm 2 mps 771 mmHg 94%
    22:00 -20°C° 0 mm 2 mps 771 mmHg 93%
    23:00 -20°C° 0 mm 2 mps 771 mmHg 93%

    Tomorrow, 24 January, Thursday

    Time Temperature Precipitation Wind Pressure Humidity
    00:00 -20°C° 0 mm 2 mps 771 mmHg 92%
    01:00 -22°C° 0 mm 3 mps 771 mmHg 92%
    02:00 -22°C° 0 mm 3 mps 771 mmHg 93%
    03:00 -21°C° 0 mm 3 mps 770 mmHg 93%
    04:00 -21°C° 0.1 mm 3 mps 770 mmHg 93%
    05:00 -20°C° 0.1 mm 4 mps 769 mmHg 93%
    06:00 -20°C° 0.1 mm 5 mps 769 mmHg 94%
    07:00 -20°C° 0.6 mm 5 mps 768 mmHg 94%
    08:00 -19°C° 0.6 mm 5 mps 768 mmHg 95%
    09:00 -18°C° 0.6 mm 6 mps 768 mmHg 96%
    10:00 -18°C° 0.9 mm 6 mps 767 mmHg 96%
    11:00 -18°C° 0.9 mm 7 mps 767 mmHg 95%
    12:00 -17°C° 0.9 mm 7 mps 766 mmHg 95%
    13:00 -17°C° 0.5 mm 7 mps 766 mmHg 94%
    14:00 -15°C° 0.5 mm 7 mps 765 mmHg 93%
    15:00 -15°C° 0.5 mm 7 mps 765 mmHg 92%
    16:00 -15°C° 0.4 mm 7 mps 764 mmHg 93%
    17:00 -14°C° 0.4 mm 6 mps 764 mmHg 93%
    18:00 -14°C° 0.4 mm 6 mps 764 mmHg 94%
    19:00 -12°C° 0.8 mm 5 mps 763 mmHg 94%
    20:00 -12°C° 0.8 mm 5 mps 763 mmHg 94%
    21:00 -11°C° 0.8 mm 5 mps 763 mmHg 95%
    22:00 -9°C° 0.3 mm 4 mps 762 mmHg 94%
    23:00 -9°C° 0.3 mm 4 mps 762 mmHg 94%

    Day after tomorrow, 25 January, Friday

    Time Temperature Precipitation Wind Pressure Humidity
    00:00 -8°C° 0.3 mm 4 mps 762 mmHg 94%
    01:00 -7°C° 0.3 mm 3 mps 762 mmHg 95%
    02:00 -7°C° 0.3 mm 3 mps 762 mmHg 95%
    03:00 -7°C° 0.3 mm 3 mps 762 mmHg 96%
    04:00 -6°C° 0.4 mm 2 mps 762 mmHg 96%
    05:00 -6°C° 0.4 mm 2 mps 762 mmHg 96%
    06:00 -6°C° 0.4 mm 2 mps 762 mmHg 96%
    07:00 -6°C° 0.4 mm 2 mps 762 mmHg 96%
    08:00 -6°C° 0.4 mm 2 mps 762 mmHg 96%
    09:00 -6°C° 0.4 mm 2 mps 762 mmHg 97%
    10:00 -6°C° 0.2 mm 2 mps 763 mmHg 96%
    11:00 -5°C° 0.2 mm 2 mps 763 mmHg 96%
    12:00 -5°C° 0.2 mm 2 mps 763 mmHg 95%
    13:00 -6°C° 0.1 mm 3 mps 763 mmHg 95%
    14:00 -6°C° 0.1 mm 3 mps 763 mmHg 95%
    15:00 -6°C° 0.1 mm 3 mps 764 mmHg 94%
    16:00 -8°C° 0.1 mm 4 mps 764 mmHg 94%
    17:00 -8°C° 0.1 mm 4 mps 764 mmHg 94%
    18:00 -9°C° 0.1 mm 4 mps 765 mmHg 95%
    19:00 -9°C° 0.1 mm 4 mps 765 mmHg 94%
    20:00 -9°C° 0.1 mm 4 mps 765 mmHg 94%
    21:00 -11°C° 0.1 mm 5 mps 766 mmHg 94%
    22:00 -11°C° 0.1 mm 5 mps 766 mmHg 94%
    23:00 -12°C° 0.1 mm 5 mps 766 mmHg 95%

    26 January, Saturday

    Time Temperature Precipitation Wind Pressure Humidity
    00:00 -13°C° 0.1 mm 5 mps 766 mmHg 95%
    01:00 -13°C° 0.1 mm 5 mps 766 mmHg 95%
    02:00 -13°C° 0.1 mm 5 mps 766 mmHg 95%
    03:00 -14°C° 0.1 mm 5 mps 766 mmHg 95%
    04:00 -14°C° 0.1 mm 5 mps 766 mmHg 95%
    05:00 -15°C° 0.1 mm 5 mps 766 mmHg 95%
    06:00 -15°C° 0.1 mm 5 mps 766 mmHg 95%
    07:00 -17°C° 0.1 mm 5 mps 766 mmHg 95%
    08:00 -17°C° 0.1 mm 5 mps 766 mmHg 95%
    09:00 -17°C° 0.1 mm 5 mps 766 mmHg 95%
    10:00 -17°C° 0.1 mm 5 mps 766 mmHg 95%
    11:00 -17°C° 0.1 mm 5 mps 766 mmHg 94%
    12:00 -17°C° 0.1 mm 5 mps 766 mmHg 94%
    13:00 -17°C° 0.1 mm 5 mps 766 mmHg 94%
    14:00 -17°C° 0.1 mm 5 mps 765 mmHg 94%
    15:00 -17°C° 0.1 mm 5 mps 765 mmHg 94%
    16:00 -17°C° 0.1 mm 5 mps 765 mmHg 94%
    17:00 -17°C° 0.1 mm 5 mps 765 mmHg 93%
    18:00 -17°C° 0.1 mm 6 mps 764 mmHg 93%
    19:00 -18°C° 0.1 mm 6 mps 764 mmHg 92%
    20:00 -18°C° 0.1 mm 6 mps 764 mmHg 92%
    21:00 -18°C° 0.1 mm 6 mps 764 mmHg 91%
    22:00 -18°C° 0 mm 6 mps 764 mmHg 90%
    23:00 -18°C° 0 mm 6 mps 763 mmHg 89%

    27 January, Sunday

    Time Temperature Precipitation Wind Pressure Humidity
    00:00 -18°C° 0 mm 6 mps 763 mmHg 88%
    01:00 -18°C° 0 mm 6 mps 763 mmHg 88%
    02:00 -18°C° 0 mm 6 mps 763 mmHg 88%
    03:00 -18°C° 0 mm 6 mps 762 mmHg 88%
    04:00 -18°C° 0 mm 6 mps 762 mmHg 89%
    05:00 -18°C° 0 mm 6 mps 762 mmHg 90%
    06:00 -18°C° 0 mm 6 mps 761 mmHg 91%
    07:00 -18°C° 0 mm 6 mps 761 mmHg 91%
    08:00 -17°C° 0 mm 5 mps 761 mmHg 92%
    09:00 -17°C° 0 mm 5 mps 761 mmHg 93%
    10:00 -17°C° 0 mm 5 mps 761 mmHg 93%
    11:00 -15°C° 0 mm 5 mps 761 mmHg 93%
    12:00 -15°C° 0 mm 5 mps 761 mmHg 93%
    13:00 -15°C° 0 mm 5 mps 760 mmHg 93%
    14:00 -15°C° 0 mm 5 mps 760 mmHg 93%
    15:00 -14°C° 0 mm 4 mps 760 mmHg 93%
    16:00 -14°C° 0 mm 4 mps 760 mmHg 93%
    17:00 -14°C° 0 mm 4 mps 760 mmHg 93%
    18:00 -14°C° 0 mm 4 mps 760 mmHg 93%
    19:00 -15°C° 0 mm 4 mps 760 mmHg 94%
    20:00 -15°C° 0 mm 4 mps 760 mmHg 94%
    21:00 -15°C° 0 mm 4 mps 760 mmHg 95%
    22:00 -15°C° 0 mm 4 mps 760 mmHg 95%
    23:00 -14°C° 0 mm 3 mps 760 mmHg 95%

    28 January, Monday

    Time Temperature Precipitation Wind Pressure Humidity
    00:00 -14°C° 0 mm 3 mps 760 mmHg 96%
    01:00 -13°C° 0 mm 3 mps 760 mmHg 96%
    02:00 -13°C° 0 mm 3 mps 760 mmHg 96%
    03:00 -13°C° 0 mm 3 mps 760 mmHg 96%
    04:00 -13°C° 0 mm 3 mps 760 mmHg 96%
    05:00 -12°C° 0 mm 3 mps 760 mmHg 96%
    06:00 -12°C° 0 mm 3 mps 760 mmHg 96%
    07:00 -12°C° 0.1 mm 3 mps 760 mmHg 96%
    08:00 -9°C° 0.1 mm 2 mps 760 mmHg 96%
    09:00 -9°C° 0.1 mm 2 mps 760 mmHg 96%
    10:00 -8°C° 0.1 mm 2 mps 760 mmHg 95%
    11:00 -8°C° 0.1 mm 2 mps 760 mmHg 95%
    12:00 -8°C° 0.1 mm 2 mps 760 mmHg 95%
    13:00 -7°C° 0.3 mm 2 mps 759 mmHg 95%
    14:00 -7°C° 0.3 mm 2 mps 759 mmHg 94%
    15:00 -7°C° 0.3 mm 2 mps 759 mmHg 94%
    16:00 -7°C° 0.2 mm 2 mps 759 mmHg 95%
    17:00 -7°C° 0.2 mm 2 mps 760 mmHg 95%
    18:00 -7°C° 0.2 mm 2 mps 760 mmHg 95%
    19:00 -7°C° 0.1 mm 2 mps 760 mmHg 95%
    20:00 -7°C° 0.1 mm 2 mps 760 mmHg 95%
    21:00 -6°C° 0.1 mm 1 mps 760 mmHg 95%
    22:00 -6°C° 0.1 mm 1 mps 760 mmHg 95%
    23:00 -6°C° 0.1 mm 2 mps 760 mmHg 95%
    Show more